Precipitable_Water
1.49 1.59 1.52 1.54 1.64 1.61 1.50 1.44 1.38 1.38 1.38 1.40 1.40 1.39 1.38 1.35 1.32 1.27 1.24 1.24 1.25 1.28 1.38 1.38 1.33 1.28 1.25 1.25 1.23 1.16 1.02 0.95 0.95 0.97 1.00 1.08 1.18 1.25 1.21 1.10 0.99 0.96 0.89
1.55 1.55 1.51 1.57 1.65 1.51 1.48 1.43 1.40 1.41 1.41 1.39 1.36 1.34 1.40 1.44 1.46 1.46 1.44 1.41 1.37 1.32 1.28 1.28 1.35 1.38 1.32 1.29 1.28 1.28 1.26 1.24 1.09 0.96 0.89 0.90 1.14 1.21 1.20 1.16 1.14 1.08 0.94
1.47 1.49 1.56 1.58 1.48 1.48 1.49 1.46 1.50 1.47 1.36 1.29 1.25 1.23 1.23 1.25 1.25 1.26 1.28 1.28 1.26 1.26 1.27 1.29 1.30 1.25 1.23 1.25 1.27 1.28 1.30 1.28 1.25 1.23 1.05 1.10 1.14 1.19 1.28 1.15 1.03 1.09 1.15
1.52 1.53 1.60 1.53 1.51 1.57 1.55 1.49 1.36 1.27 1.20 1.14 1.10 1.10 1.08 1.06 1.03 1.03 1.01 0.99 0.97 0.96 1.00 1.04 1.09 1.15 1.22 1.28 1.29 1.27 1.29 1.29 1.27 1.22 1.19 1.18 1.20 1.21 1.27 1.20 1.10 1.10 1.30
1.55 1.58 1.62 1.63 1.61 1.58 1.40 1.31 1.21 1.15 1.04 0.96 0.94 0.91 0.86 0.82 0.77 0.71 0.68 0.67 0.66 0.68 0.71 0.75 0.80 0.87 0.94 1.00 1.09 1.19 1.29 1.29 1.29 1.28 1.23 1.25 1.28 1.22 1.26 1.12 1.06 1.09 1.24
1.52 1.59 1.61 1.62 1.59 1.38 1.25 1.18 1.10 0.95 0.84 0.78 0.73 0.68 0.61 0.55 0.52 0.50 0.49 0.49 0.51 0.51 0.52 0.53 0.54 0.57 0.63 0.70 0.80 0.91 1.03 1.13 1.16 1.19 1.18 1.20 1.20 1.17 1.26 1.22 1.19 0.99 1.08
1.47 1.54 1.57 1.56 1.40 1.26 1.18 1.06 0.86 0.73 0.64 0.58 0.55 0.53 0.51 0.52 0.52 0.53 0.52 0.54 0.54 0.56 0.56 0.55 0.55 0.55 0.55 0.54 0.56 0.63 0.73 0.84 0.97 1.08 1.11 1.14 1.17 1.23 1.17 1.23 1.25 1.17 1.07
1.46 1.47 1.49 1.45 1.32 1.19 1.04 0.79 0.64 0.59 0.57 0.52 0.50 0.50 0.53 0.54 0.55 0.54 0.50 0.51 0.52 0.54 0.54 0.54 0.54 0.54 0.54 0.54 0.53 0.52 0.50 0.53 0.63 0.75 0.92 1.03 1.14 1.24 1.28 1.32 1.29 1.26 1.22
1.49 1.42 1.35 1.24 1.13 0.96 0.71 0.59 0.56 0.53 0.51 0.52 0.52 0.54 0.55 0.54 0.53 0.52 0.48 0.49 0.50 0.52 0.53 0.53 0.55 0.56 0.59 0.60 0.59 0.56 0.54 0.54 0.51 0.48 0.57 0.78 0.97 1.05 1.23 1.24 1.41 1.45 1.37
1.34 1.28 1.20 1.12 0.97 0.68 0.55 0.53 0.54 0.55 0.56 0.56 0.56 0.54 0.54 0.53 0.50 0.53 0.51 0.49 0.51 0.52 0.54 0.55 0.58 0.58 0.55 0.55 0.56 0.56 0.59 0.60 0.57 0.57 0.72 0.89 1.02 1.28 1.34 1.42 1.52 1.48 1.46
1.17 1.13 1.09 1.01 0.80 0.59 0.57 0.56 0.56 0.60 0.58 0.56 0.56 0.53 0.50 0.51 0.49 0.51 0.51 0.49 0.51 0.51 0.53 0.54 0.54 0.51 0.48 0.50 0.53 0.53 0.54 0.55 0.57 0.64 0.79 0.88 1.06 1.17 1.20 1.23 1.30 1.30 1.31
1.12 1.11 1.06 0.91 0.66 0.59 0.58 0.56 0.57 0.62 0.59 0.54 0.51 0.50 0.49 0.50 0.49 0.49 0.48 0.49 0.49 0.47 0.46 0.44 0.45 0.43 0.44 0.46 0.48 0.50 0.49 0.51 0.54 0.69 0.75 0.78 0.84 0.88 0.89 0.95 1.03 1.09 1.13
1.13 1.09 1.00 0.82 0.69 0.61 0.57 0.56 0.59 0.61 0.57 0.55 0.49 0.49 0.49 0.47 0.46 0.47 0.47 0.46 0.43 0.39 0.35 0.35 0.36 0.35 0.38 0.41 0.45 0.45 0.45 0.51 0.56 0.63 0.69 0.72 0.76 0.79 0.83 0.82 0.83 0.88 0.90
1.10 1.01 0.86 0.76 0.67 0.60 0.58 0.57 0.59 0.55 0.55 0.51 0.49 0.47 0.44 0.42 0.41 0.45 0.45 0.41 0.37 0.35 0.32 0.33 0.34 0.34 0.35 0.39 0.40 0.41 0.45 0.53 0.61 0.67 0.69 0.71 0.72 0.73 0.75 0.88 0.90 0.92 0.96
1.06 0.89 0.79 0.74 0.68 0.63 0.64 0.62 0.56 0.53 0.52 0.50 0.47 0.45 0.43 0.42 0.42 0.44 0.41 0.38 0.35 0.35 0.34 0.32 0.32 0.31 0.33 0.34 0.35 0.41 0.47 0.55 0.65 0.71 0.75 0.76 0.76 0.76 0.78 0.82 0.86 0.88 0.90
0.98 0.82 0.77 0.73 0.69 0.67 0.62 0.56 0.54 0.53 0.53 0.50 0.47 0.44 0.43 0.42 0.43 0.41 0.39 0.36 0.35 0.37 0.36 0.33 0.32 0.31 0.33 0.32 0.35 0.45 0.54 0.58 0.66 0.75 0.76 0.76 0.76 0.74 0.77 0.81 0.83 0.83 0.84
0.91 0.80 0.73 0.69 0.70 0.68 0.57 0.54 0.51 0.54 0.53 0.50 0.48 0.47 0.45 0.44 0.42 0.39 0.37 0.35 0.36 0.36 0.35 0.33 0.32 0.33 0.33 0.31 0.39 0.49 0.58 0.63 0.69 0.70 0.73 0.71 0.70 0.69 0.71 0.72 0.75 0.77 0.80
0.91 0.75 0.73 0.69 0.70 0.68 0.55 0.53 0.55 0.53 0.53 0.50 0.50 0.49 0.47 0.47 0.41 0.37 0.36 0.35 0.37 0.36 0.35 0.33 0.34 0.34 0.34 0.31 0.39 0.49 0.54 0.59 0.63 0.62 0.60 0.57 0.59 0.56 0.56 0.61 0.63 0.66 0.69
0.89 0.78 0.71 0.66 0.68 0.66 0.63 0.58 0.54 0.52 0.53 0.52 0.52 0.51 0.49 0.44 0.41 0.37 0.37 0.37 0.38 0.38 0.36 0.36 0.35 0.37 0.36 0.34 0.40 0.49 0.56 0.54 0.57 0.59 0.57 0.55 0.53 0.51 0.51 0.52 0.51 0.54 0.56
0.87 0.75 0.66 0.65 0.67 0.65 0.61 0.56 0.54 0.53 0.53 0.54 0.52 0.49 0.46 0.43 0.42 0.39 0.39 0.39 0.40 0.38 0.38 0.38 0.37 0.39 0.41 0.39 0.34 0.41 0.53 0.59 0.59 0.58 0.52 0.54 0.52 0.49 0.46 0.43 0.41 0.42 0.46
0.79 0.71 0.65 0.63 0.66 0.62 0.56 0.53 0.54 0.49 0.52 0.51 0.51 0.50 0.46 0.45 0.45 0.42 0.41 0.41 0.42 0.39 0.40 0.40 0.39 0.38 0.39 0.43 0.35 0.39 0.49 0.59 0.61 0.60 0.59 0.60 0.57 0.55 0.53 0.49 0.44 0.39 0.39
0.77 0.70 0.66 0.64 0.64 0.59 0.57 0.55 0.54 0.52 0.52 0.50 0.50 0.48 0.48 0.47 0.47 0.47 0.45 0.43 0.43 0.41 0.40 0.40 0.40 0.39 0.40 0.45 0.39 0.37 0.32 0.47 0.55 0.57 0.61 0.59 0.58 0.60 0.56 0.53 0.49 0.45 0.39
0.76 0.67 0.65 0.65 0.61 0.58 0.58 0.57 0.54 0.52 0.47 0.46 0.47 0.47 0.48 0.50 0.50 0.50 0.49 0.47 0.46 0.44 0.42 0.42 0.42 0.40 0.38 0.42 0.46 0.40 0.31 0.31 0.37 0.54 0.57 0.59 0.58 0.58 0.55 0.53 0.51 0.48 0.41
0.71 0.66 0.67 0.66 0.60 0.58 0.59 0.55 0.50 0.45 0.42 0.46 0.46 0.47 0.47 0.50 0.51 0.54 0.53 0.52 0.50 0.49 0.46 0.45 0.46 0.43 0.42 0.38 0.44 0.48 0.46 0.45 0.36 0.35 0.51 0.53 0.58 0.56 0.56 0.54 0.52 0.49 0.45
0.69 0.66 0.66 0.63 0.59 0.58 0.57 0.56 0.53 0.47 0.49 0.50 0.49 0.47 0.49 0.51 0.55 0.56 0.56 0.56 0.54 0.53 0.51 0.49 0.47 0.45 0.44 0.42 0.42 0.42 0.44 0.45 0.46 0.42 0.38 0.45 0.51 0.52 0.54 0.54 0.54 0.50 0.49
0.65 0.64 0.62 0.58 0.56 0.57 0.57 0.57 0.53 0.49 0.49 0.49 0.48 0.46 0.47 0.51 0.55 0.57 0.58 0.57 0.57 0.55 0.52 0.52 0.51 0.49 0.47 0.46 0.46 0.45 0.45 0.43 0.42 0.42 0.40 0.42 0.42 0.44 0.51 0.54 0.54 0.52 0.53
Wind_Speed
8 8 8 7 5 4 4 4 4 5 5 5 6 6 7 7 8 9 9 9 9 9 9 8 8 8 8 8 8 8 8 8 9 9 9 9 9 9 9 9 9 9 9
9 9 8 7 5 4 3 3 3 3 4 4 5 6 7 7 8 9 9 9 9 9 9 9 9 8 8 9 9 9 10 10 10 10 10 10 10 10 10 10 10 10 10
10 9 8 6 5 4 3 3 3 3 3 4 5 6 7 8 9 10 10 9 10 9 9 9 9 9 9 10 10 10 11 11 11 12 12 12 12 12 12 12 11 11 10
10 9 7 6 5 4 3 3 2 2 3 3 5 6 7 8 10 10 10 10 10 9 9 9 10 10 10 11 11 12 12 13 13 13 13 13 14 12 13 13 13 13 13
9 8 7 7 6 5 3 2 1 2 3 4 5 6 8 9 10 10 10 10 10 9 10 10 11 11 12 12 13 13 14 14 14 14 14 14 15 14 14 14 14 14 15
9 8 8 7 6 4 2 1 1 2 3 4 5 7 8 9 10 10 10 10 10 10 11 12 12 13 14 14 15 16 16 17 17 17 17 18 17 16 16 16 16 16 16
10 9 8 7 5 4 2 1 2 3 4 5 6 7 8 9 10 10 11 11 11 11 12 13 14 15 16 17 18 19 19 20 20 21 21 20 20 20 19 19 19 18 17
11 9 9 7 5 4 3 3 3 4 5 5 6 7 8 10 10 11 11 11 11 13 13 14 15 16 18 19 20 21 22 23 23 24 24 24 23 23 22 22 21 21 20
11 10 10 8 7 6 5 5 5 4 5 5 6 7 8 10 11 12 12 12 13 14 15 16 17 18 19 21 22 22 23 24 25 25 26 25 25 25 24 24 23 22 22
12 11 10 9 8 7 6 6 5 5 5 5 6 8 9 10 12 12 12 13 14 15 17 17 19 20 22 23 24 24 25 25 25 25 25 25 24 23 23 22 22 22 22
13 11 10 10 10 9 8 7 6 6 6 6 7 8 9 10 12 12 13 14 16 17 18 19 20 22 23 24 25 25 25 25 25 22 21 19 18 18 20 21 21 21 21
14 12 11 10 10 10 9 8 7 7 6 6 7 8 9 10 12 13 14 16 17 18 19 20 21 23 23 24 24 24 24 23 22 20 19 18 17 18 18 19 20 20 20
15 14 12 11 10 10 9 9 8 7 7 7 8 9 10 11 12 14 16 17 18 19 19 20 22 23 23 23 23 23 22 20 18 17 16 16 15 16 16 17 17 16 17
16 14 12 11 11 10 10 9 9 8 8 8 8 10 10 12 13 15 17 18 19 19 20 21 22 22 22 22 22 20 19 17 15 13 12 12 13 12 12 12 13 13 13
17 15 13 12 11 11 11 11 10 9 8 8 9 10 11 13 14 16 18 19 19 19 20 21 21 21 21 22 20 18 16 15 13 12 12 12 12 12 12 12 12 12 13
17 16 14 13 12 11 11 11 10 10 9 9 10 11 12 13 15 17 18 19 19 19 20 20 21 21 22 21 18 17 16 14 12 11 11 12 12 12 11 10 10 11 11
18 16 15 14 13 12 12 11 11 10 10 11 12 12 13 14 16 18 18 19 19 20 20 21 21 22 21 20 17 16 14 13 11 11 11 12 12 12 11 11 11 12 12
19 17 16 14 13 13 13 12 11 11 11 12 13 13 14 15 17 18 18 19 20 20 21 21 21 22 21 20 18 16 14 13 13 12 13 13 13 13 14 13 14 14 15
20 18 17 16 15 13 13 13 12 12 13 13 14 14 15 16 18 18 19 20 21 21 21 22 22 22 22 21 19 17 15 15 14 15 15 14 14 15 16 16 17 17 18
20 19 18 17 16 14 14 14 13 14 14 15 15 16 17 17 18 19 20 21 22 22 22 22 22 22 22 22 20 19 17 16 16 16 16 16 15 16 16 17 18 19 19
21 20 19 18 17 16 15 15 15 15 15 16 17 17 18 19 19 20 21 22 23 23 23 23 23 23 23 23 21 19 18 18 17 17 17 17 17 17 18 19 19 19 20
22 21 19 19 18 17 17 17 16 16 17 18 18 19 19 20 21 22 23 24 24 24 24 24 24 24 24 23 22 21 20 19 19 19 18 19 19 19 20 20 21 21 22
22 21 20 20 19 19 18 18 18 18 19 19 19 20 21 22 23 24 25 25 26 26 26 25 25 25 25 24 23 21 21 20 21 20 21 20 21 22 22 22 23 23 23
22 21 21 20 20 20 19 19 19 19 20 20 21 21 22 24 25 26 27 27 28 27 27 27 27 27 26 25 24 23 23 22 22 22 22 23 23 23 24 25 25 25 25
21 21 21 21 21 21 21 21 21 21 22 22 22 24 25 26 27 29 29 29 29 29 29 29 29 28 27 27 26 25 25 24 24 24 25 25 26 27 27 27 27 27 27
20 21 21 21 22 22 22 22 23 23 23 24 25 26 27 28 29 31 31 31 31 31 31 30 30 29 29 29 28 27 26 25 25 25 26 27 28 29 28 29 29 29 30
Wind_Direction
170 167 163 155 143 126 110 97 87 76 65 57 47 40 32 25 19 13 8 4 2 360 1 355 352 350 348 347 345 343 340 337 333 328 322 316 312 311 313 313 309 304 296
171 168 166 162 156 140 123 108 91 73 57 44 33 24 19 14 7 1 358 357 355 352 348 344 343 340 338 335 333 331 329 326 324 320 316 310 306 304 303 307 305 301 296
167 167 167 170 167 155 140 119 96 73 52 36 23 11 4 360 356 354 353 351 349 350 350 349 344 337 333 330 328 325 323 321 319 316 313 306 302 296 294 300 299 295 292
168 171 172 172 169 162 148 130 98 54 25 12 3 358 355 352 350 349 348 348 346 345 346 344 341 338 337 331 325 321 318 316 314 312 310 306 305 294 292 295 294 290 285
173 174 172 169 166 159 156 143 75 14 3 358 354 350 348 348 347 347 347 345 344 342 341 339 336 333 330 326 323 322 317 314 311 309 308 305 304 293 294 293 293 288 285
173 175 175 171 167 169 171 189 325 339 345 345 344 343 344 346 346 346 345 343 341 338 335 332 328 325 323 320 318 315 312 310 307 303 301 299 300 292 290 291 292 288 284
183 182 181 181 185 192 213 259 300 318 329 334 336 341 343 345 347 347 344 341 338 336 332 330 326 323 319 316 313 310 308 306 302 299 296 295 293 292 286 286 288 286 283
195 194 194 196 207 221 238 264 291 306 319 327 333 340 344 346 348 346 344 340 337 334 332 330 327 325 322 318 314 310 307 303 300 297 294 291 289 288 285 283 283 283 281
203 208 213 219 226 236 250 265 281 294 312 325 333 337 339 342 343 343 342 339 336 334 331 329 327 326 323 320 317 313 310 306 301 296 293 290 286 284 283 280 282 281 279
210 212 220 224 229 239 250 261 269 283 305 312 326 330 333 336 338 338 337 336 333 332 329 326 325 322 321 319 318 314 311 308 304 300 296 292 286 283 281 280 280 282 281
215 222 227 232 238 243 250 256 261 280 292 305 319 329 332 335 338 338 335 334 332 330 329 326 325 324 322 320 319 317 315 310 306 305 301 298 293 289 286 283 283 282 282
219 226 232 238 240 244 248 249 258 271 284 300 314 323 329 332 338 338 336 334 332 330 328 328 327 326 325 325 324 323 320 316 312 305 303 300 296 293 291 288 286 285 283
222 229 234 237 240 241 243 244 254 265 279 297 310 318 322 327 331 334 334 332 331 331 330 330 330 330 330 330 330 329 328 326 322 315 308 304 301 299 296 293 290 288 287
223 226 231 235 239 241 243 249 254 264 276 293 306 313 319 323 326 329 331 331 331 330 330 331 331 332 333 334 332 333 333 334 334 331 326 321 317 313 308 305 303 300 297
222 224 230 235 241 244 247 248 254 263 275 290 302 310 315 320 323 326 330 331 331 331 331 331 333 333 334 334 333 334 334 335 338 336 335 332 327 321 314 310 308 305 302
220 224 230 236 242 246 244 244 253 261 274 288 299 306 312 316 321 325 328 329 330 330 332 332 333 332 331 331 330 331 329 328 330 332 333 334 334 332 328 323 320 317 314
220 225 231 237 241 245 244 247 253 262 275 287 296 303 309 314 319 323 325 327 328 329 329 330 330 331 329 329 327 327 328 328 327 327 329 329 330 332 331 328 324 319 315
221 226 232 236 241 244 244 248 252 265 276 286 294 299 305 311 316 319 322 324 325 326 327 327 328 329 329 328 322 320 315 317 316 316 317 319 320 319 317 315 316 314 312
223 228 232 236 242 244 243 246 256 267 277 285 291 296 303 307 313 316 318 321 323 323 323 324 325 326 326 325 317 315 308 308 308 307 308 310 311 311 311 310 309 308 306
225 229 234 237 241 244 246 252 261 269 277 284 289 294 300 305 309 312 315 317 319 319 319 320 322 323 322 321 315 308 301 300 303 303 303 304 306 308 309 310 309 307 305
228 231 234 237 239 244 248 255 264 270 277 285 288 293 298 301 305 308 311 314 315 316 316 317 318 320 319 320 314 308 301 296 297 297 298 299 301 304 306 308 309 308 306
228 231 233 237 240 244 250 258 266 271 279 284 288 291 295 299 302 305 308 310 312 311 312 313 315 315 314 316 312 304 300 294 294 292 292 296 298 299 302 305 307 307 306
229 231 234 238 241 246 253 260 267 273 280 284 287 290 294 297 300 302 305 307 308 308 308 309 310 311 311 310 309 304 298 291 293 290 289 292 294 296 298 300 303 304 304
230 233 236 240 244 249 255 261 267 273 279 283 287 290 293 296 298 301 303 304 304 304 305 305 306 306 306 306 305 301 296 290 290 292 290 293 292 293 295 297 299 301 302
232 236 239 243 247 252 257 264 269 274 279 283 287 290 292 295 297 298 300 301 302 302 302 301 302 302 302 301 300 300 296 291 288 288 290 293 292 293 293 294 296 297 299
236 239 242 246 251 256 260 265 270 274 279 283 287 290 292 295 297 298 297 298 299 300 299 298 299 298 298 297 297 296 293 290 289 289 290 291 292 294 293 293 293 294 296